CAPE
310 366 500 726 1005 1204 1153 1538 2217 2453 2691 2849 2804 2809 2597 2785 2637 2585 2514 2511 2317 2197 2155 2191 2061 1915 1957 2069 2073 2172 1824 1936 1598 1854 1728 1799 1439 1516 1207 1142 1211 468 1338
454 368 739 1153 1042 1087 1259 1554 2094 2364 2550 2518 2717 2390 2330 2251 2426 2531 2539 2515 2289 2093 2244 2225 2108 2045 1935 1723 1671 1796 1596 1781 1553 1849 1729 1205 1266 1619 1328 927 940 1194 1079
465 600 523 1010 1040 1146 1188 1663 2012 2404 2239 2658 2245 1830 1641 2093 2428 2590 2600 2397 2309 2315 2253 2160 2023 1997 1907 1906 1792 1680 1656 1524 1281 1731 1511 523 752 923 1351 969 955 1004 1164
334 439 386 1237 1371 1092 1035 1651 1764 1852 1671 2002 1837 1626 1840 2080 2241 2447 2342 2264 2283 2176 2052 2024 1990 1951 1857 1939 1844 1623 1644 1464 1342 1009 1312 508 662 1661 1521 1457 1579 1159 1311
610 478 862 1244 1270 1183 1152 1595 2116 2032 2022 2156 1777 1740 1744 1932 2384 2397 2173 2139 2088 2037 1985 1860 1734 1812 1932 2047 1930 1967 1582 1424 1360 1283 1484 1082 1056 1698 1270 1420 1500 1103 1008
815 850 646 988 1242 1196 1533 1744 1878 2034 2079 2163 1881 1776 1942 2271 2123 1985 1976 2093 2008 1990 1982 1943 1910 1885 1865 2115 2277 2026 1920 1689 1528 1593 1342 1230 1135 1648 1371 1313 947 1230 1263
927 1092 842 1651 1753 1580 1642 1896 2367 1911 2038 2160 2183 2018 2207 1960 2009 2000 2217 2141 1948 1851 1912 1848 1967 2041 2095 2239 2424 1996 2056 1595 1596 1555 1537 1652 1618 1568 1193 1443 627 807 1315
1139 1031 1440 1852 2076 2074 2065 2229 2494 2141 2221 2359 2205 2128 2131 2035 2130 2171 2106 1931 1868 1833 1801 1961 2080 2021 2023 2101 2191 1759 1937 1950 1742 1524 1675 1342 1889 2146 1555 1517 1096 1095 1299
1193 1212 1562 1523 2106 2351 2385 2417 2475 2236 2096 1964 2140 2275 2156 2178 2108 2292 2107 1924 1900 2000 2159 2139 1950 1704 1908 1919 1838 1867 1785 1607 2054 1815 1551 1642 1828 2086 2272 1678 1539 1511 1321
1423 1665 1898 2004 2028 1974 2069 2494 2429 2103 1600 1778 2145 2165 2215 2237 2122 1842 2013 2005 1924 1800 1854 2018 1901 1866 1928 1851 1793 1770 1526 1927 1561 1441 1850 1811 1727 2039 1996 2038 1359 950 1277
1464 1645 1820 1966 2067 2180 1629 1784 1964 1754 1842 1922 2136 2226 1838 1455 1640 1492 1734 1781 1986 1807 1697 1911 1919 1991 1693 1626 1583 1544 1594 1242 1429 1442 1773 1786 1557 1701 1984 2154 1788 1413 1370
1589 1595 1521 1756 1935 1997 1617 2041 2000 1480 1198 1130 1129 1380 1293 1538 1829 1406 1645 1835 1850 1773 1750 1841 1646 1576 1738 1136 1119 1284 900 1142 1373 1474 1566 1729 1577 1600 1733 1854 1499 2139 1213
1530 1613 1788 1627 1998 1930 1912 1855 1823 1571 1418 1477 1844 1775 1386 1544 1553 1805 1682 1548 1287 1389 1762 1632 1508 1267 1472 1259 934 938 996 944 778 1294 1681 1394 1462 1694 1505 1681 1588 1801 1270
1300 1355 1483 1681 1842 1861 3152 1798 1677 1468 1435 1312 1358 1863 1863 1696 1752 1989 1723 1765 1928 1462 1585 1556 1262 1465 1450 1176 1127 1051 740 723 601 670 1329 1597 1463 1822 1790 1638 1466 1748 1231
1271 1354 1414 1678 2051 2169 2318 1622 1574 1488 1333 1176 1171 1587 1496 1377 2022 1892 1738 1785 1651 1542 1342 1341 1392 1438 1409 1053 964 575 293 294 547 507 667 1548 1243 1469 1980 1769 1557 1689 1532
1127 1258 1466 1673 2029 2132 2134 1995 1734 1579 1393 1349 1112 1126 1680 1482 2080 1572 1533 1372 1464 1529 1232 1288 1561 1521 1236 824 354 319 240 138 225 498 339 668 1368 1226 1610 1848 1891 1721 1705
1192 1221 1537 1948 2135 2542 2576 2312 2124 1693 1493 1386 1278 1671 1786 1984 1887 1612 1548 1412 1436 1548 1827 1521 1474 1215 759 520 279 146 299 252 242 374 453 243 713 1748 1698 1689 2481 2545 1915
1277 1485 1609 1543 1807 2307 2318 2146 1935 1554 1558 1557 1326 1595 2072 1979 1956 1864 1675 1403 1260 1358 1453 1330 1193 758 528 383 177 244 316 180 242 319 338 440 130 206 1745 1778 1626 2581 2552
1489 1782 1854 1745 1598 1888 2231 2119 2049 1904 2383 2338 2311 1866 1749 1853 1639 1817 1520 1445 1603 1338 1504 1139 835 614 328 136 79 40 218 169 173 111 418 626 736 522 267 1977 1362 1519 1762
1634 1966 2079 1890 1936 2278 3117 2985 2311 2203 1954 1689 1802 2398 2124 2307 1762 1913 1639 1484 1458 1528 1139 938 842 367 433 129 16 32 229 129 160 170 127 59 133 546 886 1576 1344 1513 1578
1791 2214 2531 2404 2499 2770 2717 1700 1770 1565 1692 2022 1698 2403 2264 2110 2002 1944 1498 1625 1543 1471 929 599 316 201 15 78 14 26 188 168 113 34 5 0 0 1 226 967 1243 1372 1724
1897 2353 2709 2797 2764 2850 2203 2455 2011 2302 1637 1853 2000 2133 2225 2172 2225 1957 1896 1695 1598 507 746 340 213 46 23 48 92 19 25 220 190 48 2 0 0 0 0 73 471 848 903
1799 2391 2711 3051 3125 3074 2937 2392 2563 2432 2432 2066 2162 2422 2735 2589 2518 2404 2224 1528 1357 371 3 156 126 31 14 338 348 61 19 24 22 83 89 0 0 0 0 0 2 3 0
1650 2042 2751 3175 3423 3242 3210 2972 3586 2291 1787 1374 1730 1392 2066 2650 2451 2323 2147 1652 429 1 60 119 26 55 193 27 27 48 217 283 39 38 50 16 0 0 0 0 0 0 0
1511 1821 2351 3201 3734 3739 3377 3616 3150 3030 1792 1436 1512 1999 2359 2313 2490 1703 2200 875 346 126 314 151 61 140 62 28 20 37 68 22 12 9 11 21 21 15 0 0 0 0 0
1371 1620 1952 3177 4089 3741 3649 3587 3540 2895 2635 1537 2020 1643 1139 1138 1795 1916 2061 936 294 48 281 172 34 99 86 61 65 134 23 19 25 15 10 10 15 14 9 3 1 0 0
CIN
0 0 -11 -4 -4 -2 -4 0 0 0 0 0 0 0 0 0 0 0 0 0 0 -1 -3 -6 -7 -2 -2 0 0 0 0 0 0 0 0 0 0 0 0 -5 -14 -3 0
0 -2 -6 0 -2 -4 -1 -2 0 0 0 0 0 -1 0 -2 0 0 0 0 0 0 0 0 0 0 -3 -6 -3 0 -1 -1 -2 0 0 -12 -3 0 0 -8 -5 -5 0
0 0 0 -6 -6 -4 -2 -1 0 0 0 0 0 -5 -14 0 0 0 0 0 0 0 0 0 0 -1 0 0 -2 -1 -1 -3 -1 -4 -13 -1 0 -4 -5 -9 -6 -8 -2
-2 0 -1 -4 -1 -4 -3 0 0 0 0 -1 -4 -13 -6 0 0 0 0 0 0 0 0 0 -1 -1 0 0 -1 -3 -3 -5 -2 -13 -4 0 0 -1 0 0 0 -2 0
0 0 0 -2 -2 -3 -5 0 0 0 0 0 -3 -7 -5 -2 0 0 0 0 0 0 0 -1 -4 -1 0 0 0 -4 -4 -7 -10 -6 0 0 0 0 0 0 0 -2 -1
0 0 -15 -5 -2 -3 -1 0 -1 0 0 0 0 -3 -2 0 0 -1 0 0 0 -1 -1 -1 -1 0 0 0 0 -1 -2 -4 -8 0 0 -2 0 -6 0 0 -3 0 -2
0 0 0 -1 -1 -2 -1 0 0 0 0 0 0 -2 0 -2 -3 -4 -1 0 0 0 -1 -1 0 0 0 0 -1 -2 -3 -9 0 0 -4 0 0 -5 -2 0 -11 -7 0
0 0 0 -1 -1 -1 0 0 0 0 0 0 0 0 0 -3 -2 -1 -1 0 0 0 -1 -4 -2 0 0 0 0 -4 -1 -10 -1 0 0 -2 -20 -2 0 0 0 -1 0
0 0 0 0 0 0 0 0 0 0 0 0 0 0 -3 -3 -3 -1 -2 -4 0 -2 -2 -1 -4 -9 -6 -14 -11 -8 -7 -18 0 0 0 -6 -28 -1 0 0 0 0 0
0 0 0 0 0 0 0 0 0 0 -2 -2 0 -2 -2 -3 -4 -13 -11 -7 -8 -10 -6 -6 -9 -12 -13 -24 -31 -28 -32 -31 0 0 0 -1 -16 -2 0 0 0 -2 0
0 0 0 0 0 0 0 0 0 0 0 -2 -2 -3 -10 0 0 -1 -20 -19 -13 -14 -13 -9 -11 -12 -26 -41 -42 -42 -46 0 0 0 0 -27 -23 -6 0 0 0 0 0
0 0 0 0 0 0 0 0 0 0 0 0 0 0 0 0 0 -2 -16 -30 -24 -24 -17 -17 -27 -30 -27 0 0 -14 0 -11 0 0 0 -37 -22 -11 -2 0 0 0 0
0 0 0 0 0 0 0 0 0 0 0 0 0 0 0 0 0 0 0 0 0 -33 0 -4 -5 0 0 0 -5 -6 -7 -11 -6 0 -22 -46 -30 -15 -9 -10 0 0 0
0 0 0 0 0 0 0 0 0 0 0 0 0 0 0 0 0 0 0 0 0 0 0 0 0 0 0 -9 -6 -9 -13 -23 -9 -13 -8 -39 -31 -14 -5 -4 -8 0 -2
-1 0 0 0 0 0 0 0 0 0 0 0 0 0 0 0 -1 0 0 0 0 0 0 0 0 0 0 0 -1 -24 -32 -35 -26 -18 -4 -21 -41 -29 -10 -2 -5 0 0
-1 0 0 0 0 0 0 0 0 0 0 0 0 0 -1 0 -1 0 0 0 0 0 0 0 0 0 0 0 -8 -25 -65 -129 -88 -18 -26 -3 -27 -45 -25 -6 0 -3 0
-8 -3 0 0 0 0 0 0 0 0 0 0 0 0 0 0 -1 0 0 0 0 0 0 0 0 0 0 0 -28 -97 -40 -60 -69 -35 -5 -38 0 -32 -21 -16 -2 -1 -3
-13 -3 -2 0 0 0 0 0 0 0 0 0 0 0 0 0 0 0 0 0 0 0 0 0 0 0 -8 -44 -88 -75 -60 -103 -100 -77 -36 -2 -79 -32 -14 -17 -12 -3 -1
-13 -1 0 -2 -1 0 0 0 0 0 0 0 0 0 0 0 0 0 0 0 0 0 0 0 0 -1 -49 -117 -169 -119 -93 -113 -119 -163 -49 -7 0 -4 -29 -25 -25 -23 -8
-8 0 0 -1 -1 0 0 0 0 0 0 0 0 0 0 0 0 0 0 0 0 0 0 0 0 -45 -51 -139 -12 -33 -105 -119 -105 -117 -152 -225 -103 -4 0 0 0 -5 -11
-7 0 0 0 0 0 0 0 0 0 0 0 0 0 0 0 0 0 0 0 0 0 0 0 -44 -99 0 -111 0 0 -142 -115 -128 -172 -1 0 0 -121 -49 0 0 0 -2
-11 0 0 0 0 0 0 0 0 0 0 0 0 0 0 0 0 0 0 0 0 0 0 -45 -84 -129 0 -21 -150 0 0 -117 -111 -41 0 0 0 0 0 -167 -10 -3 0
-23 0 0 0 0 0 0 0 0 0 0 0 0 0 0 0 0 0 0 0 0 -18 0 -107 -126 -64 0 -70 -64 -151 0 0 0 -192 -60 0 0 0 0 0 -130 -50 0
-46 -15 0 0 0 0 0 0 0 0 0 0 0 0 0 0 0 0 0 0 -29 0 -112 -122 -227 -177 -104 0 -37 -163 -72 -67 0 0 0 0 0 0 0 0 0 0 0
-40 -23 -2 0 0 0 0 0 0 0 0 0 -2 0 0 0 0 0 0 -16 -59 -73 -40 -80 -134 -93 -166 -71 0 0 -66 0 0 0 0 0 0 0 0 0 0 0 0
-43 -32 -18 -1 0 0 0 0 0 0 0 -3 -2 -11 -28 -23 -6 0 0 -26 -93 -129 -44 -60 -116 -63 -81 -45 -32 -99 0 0 0 0 0 0 0 0 0 0 0 0 0
Wind_Speed
11 8 11 9 10 12 12 13 8 3 4 6 6 7 7 7 7 7 7 9 8 7 6 7 8 10 12 11 8 4 3 3 3 4 1 1 2 4 6 7 10 5 6
6 8 12 6 10 9 7 10 8 5 4 5 4 4 4 7 8 7 5 5 6 5 6 6 7 10 13 12 9 6 4 5 5 4 5 7 1 2 5 11 16 8 2
7 5 6 8 9 7 10 6 6 4 2 2 4 5 6 7 8 8 4 1 0 1 4 5 8 10 13 12 11 10 10 6 6 6 10 7 5 4 5 4 8 5 3
2 5 6 10 9 8 8 5 2 2 1 2 5 5 5 5 7 8 5 2 1 1 1 3 7 10 11 11 10 10 10 9 7 7 14 5 4 4 7 8 4 7 10
3 6 5 9 8 8 7 4 3 2 1 2 3 3 3 5 6 7 4 1 2 2 3 5 8 10 11 11 11 10 10 7 9 14 8 3 7 5 2 4 7 9 3
3 6 2 6 5 4 4 2 1 1 1 1 2 0 0 1 2 3 1 1 2 3 4 6 7 9 12 11 11 11 10 6 10 8 7 5 5 6 3 0 6 7 9
8 8 6 5 3 4 4 7 5 4 3 3 5 5 4 2 2 1 0 1 2 4 5 5 7 9 10 11 10 9 9 8 13 9 3 5 6 2 4 3 5 4 6
9 10 9 5 5 7 8 9 9 8 6 6 9 11 7 5 6 3 2 1 2 5 7 7 7 8 8 8 8 8 8 6 4 7 6 2 10 5 5 6 8 6 5
12 9 8 8 6 7 8 10 11 11 10 10 10 13 13 11 7 4 5 4 4 5 6 5 3 3 4 3 5 6 7 5 3 7 5 3 14 7 5 6 7 7 9
12 11 6 4 6 8 9 10 12 12 11 9 9 10 12 12 10 11 14 7 8 6 4 4 3 2 3 4 5 5 3 5 3 6 13 13 10 9 7 9 7 9 8
8 8 7 6 7 11 9 11 12 12 11 11 11 11 15 15 11 13 2 8 11 6 4 1 3 4 7 9 5 1 6 7 6 12 16 17 10 9 11 13 10 10 12
10 8 8 8 10 10 11 10 12 12 13 15 14 12 15 12 12 15 12 13 13 13 11 8 9 12 17 5 5 10 0 4 3 8 14 19 12 9 10 13 12 12 12
10 8 8 9 10 11 7 10 10 11 12 12 14 15 15 16 15 16 13 15 14 16 15 15 15 10 7 9 9 8 7 8 4 3 13 14 9 6 11 13 14 13 13
6 9 11 10 11 12 8 11 11 12 11 12 12 14 14 16 16 15 13 13 16 12 12 13 12 12 13 14 13 10 9 9 8 6 6 14 6 5 11 11 12 16 15
8 10 12 10 11 11 10 11 12 12 10 10 9 11 13 14 11 13 10 14 13 13 13 14 12 11 11 13 12 12 12 12 10 9 6 13 7 3 5 13 13 12 15
9 10 9 11 12 13 13 12 12 12 11 10 9 10 11 13 9 12 11 12 11 10 10 11 9 10 10 10 10 8 10 11 10 12 11 10 13 9 6 12 15 13 12
8 9 10 11 13 13 13 12 12 13 13 10 9 9 10 10 8 10 9 10 10 8 11 12 10 11 9 7 7 7 8 7 7 8 10 8 11 20 14 13 15 19 18
9 9 8 8 10 11 10 8 9 11 11 9 8 6 9 10 11 11 9 10 9 9 10 11 9 9 10 7 6 7 6 7 6 8 9 6 6 7 20 17 14 17 20
8 7 8 8 7 8 8 7 6 7 5 5 7 9 10 11 11 10 10 10 12 9 7 6 8 10 8 9 nan nan 8 8 9 11 11 11 12 8 3 22 16 12 16
6 6 6 7 7 7 5 5 3 3 6 8 8 7 10 10 12 10 9 9 9 12 11 8 9 9 9 8 nan nan 11 12 12 12 13 nan 14 11 10 8 16 20 14
7 8 9 8 8 6 8 4 6 5 5 3 4 8 11 12 12 11 12 14 13 11 10 9 7 9 nan nan nan nan 17 14 15 nan nan nan nan nan 14 15 11 11 21
10 8 8 7 7 8 6 4 2 2 4 8 7 6 7 11 14 15 12 13 15 13 13 9 9 nan nan nan nan nan nan 18 14 nan nan nan nan nan nan nan 19 19 16
12 11 9 8 8 9 2 6 5 4 2 8 10 12 16 18 22 21 22 17 20 13 nan 14 14 nan nan 15 10 nan nan nan nan nan nan nan nan nan nan nan nan nan nan
12 10 8 8 9 10 9 6 10 8 9 11 12 15 17 23 22 23 23 23 19 nan nan 18 nan nan 11 nan nan nan 10 13 nan nan nan nan nan nan nan nan nan nan nan
13 11 10 8 7 8 12 9 14 13 15 16 20 21 23 25 22 24 25 24 20 15 21 17 nan 17 nan nan nan nan nan nan nan nan nan nan nan nan nan nan nan nan nan
14 14 11 11 11 11 12 16 15 17 17 20 26 23 20 21 24 22 24 23 22 nan 19 16 nan nan nan nan nan 15 nan nan nan nan nan nan nan nan nan nan nan nan nan
Wind_Direction
85 75 95 96 114 116 113 100 102 98 115 132 129 153 152 160 182 192 203 220 216 218 204 206 199 193 194 191 184 163 61 18 45 20 21 184 186 101 114 98 76 249 217
43 64 100 127 132 103 89 98 112 102 116 128 133 146 161 184 198 222 209 239 231 220 218 205 189 187 188 183 176 156 112 55 52 52 35 29 78 77 104 107 143 243 252
33 68 58 102 98 86 89 110 87 73 84 146 154 152 175 192 203 223 230 176 232 144 211 194 183 179 182 174 169 162 140 117 74 84 92 133 227 173 142 140 185 156 334
57 69 63 110 103 82 71 83 39 9 43 168 144 169 169 185 203 226 228 198 140 119 138 181 176 182 174 168 170 180 150 123 141 70 75 140 221 219 219 210 229 235 271
114 113 138 101 81 61 65 47 7 10 181 133 136 190 187 190 203 218 221 199 168 160 173 178 176 181 170 163 169 163 174 150 124 74 93 108 127 290 257 238 291 270 233
51 76 99 91 68 35 36 37 298 334 18 3 7 303 128 201 204 236 255 172 119 146 148 150 167 171 158 163 172 163 162 145 130 105 78 8 126 302 334 170 240 241 256
29 43 21 50 32 18 20 25 23 19 1 20 28 28 25 56 166 201 252 61 89 89 95 116 141 154 158 161 183 175 162 149 139 156 146 85 263 322 327 327 309 273 269
13 3 343 7 14 17 22 31 35 23 23 27 33 34 52 83 142 168 157 113 83 90 91 106 140 144 151 167 178 185 186 173 156 203 235 60 278 348 356 311 325 305 287
341 354 358 2 6 25 30 35 35 38 38 43 51 43 62 77 89 76 90 91 116 113 112 118 158 163 159 170 179 180 210 198 206 233 225 258 290 304 338 333 317 325 301
349 336 0 30 35 40 46 44 42 39 42 49 46 47 58 64 73 55 68 49 89 113 115 91 14 270 259 249 253 242 215 51 203 228 272 261 296 310 300 319 325 319 324
1 10 9 24 54 59 47 45 46 49 48 44 39 41 44 65 54 59 76 94 86 91 120 24 2 18 45 356 311 166 71 267 227 247 265 279 288 291 304 308 308 323 321
357 10 57 61 51 49 58 37 53 48 47 51 48 38 62 62 72 86 65 69 62 72 57 37 40 44 54 62 14 32 63 211 337 290 274 270 263 278 303 302 300 311 320
3 41 58 65 61 44 50 54 63 63 64 55 58 64 62 72 69 71 65 54 49 41 48 39 41 50 66 68 54 63 68 60 43 340 294 289 294 286 295 300 304 311 305
31 52 54 47 55 57 56 54 53 65 68 70 58 53 67 63 59 74 71 56 55 62 61 53 56 65 71 67 74 73 65 60 60 38 324 293 296 276 325 313 300 298 297
58 66 68 57 61 58 49 61 60 72 67 72 67 46 69 68 64 74 66 66 69 57 54 60 60 65 68 69 70 64 63 54 47 46 41 323 302 282 302 325 322 309 293
62 63 63 58 54 56 55 59 63 59 72 71 71 64 61 76 44 64 57 60 57 53 51 48 45 55 48 47 43 44 56 52 45 48 41 19 339 336 311 327 319 313 307
70 58 59 52 37 42 45 51 57 58 59 70 68 70 73 54 60 65 49 45 43 27 39 29 23 20 33 25 21 16 22 22 46 36 35 30 9 354 343 322 325 319 327
59 46 49 51 28 33 40 44 54 54 54 57 59 55 53 48 47 46 36 43 34 36 39 20 9 0 5 2 351 348 336 353 332 10 8 12 10 32 348 346 327 330 326
35 30 33 30 27 17 26 29 39 30 61 70 42 55 31 42 50 48 35 29 11 15 12 25 336 329 333 336 nan nan 315 324 329 304 317 334 319 351 348 321 330 331 330
6 2 358 356 16 352 322 337 10 25 35 49 37 24 21 15 17 14 17 18 359 350 359 315 295 293 299 304 nan nan 301 308 304 301 305 nan 302 312 305 313 326 321 325
348 336 333 345 348 332 324 357 5 22 1 22 16 11 1 1 356 349 352 348 342 333 302 295 291 308 nan nan nan nan 316 321 302 nan nan nan nan nan 290 291 272 275 306
344 335 333 346 338 324 306 262 210 287 6 335 349 346 355 350 339 328 323 319 312 305 305 292 289 nan nan nan nan nan nan 322 325 nan nan nan nan nan nan nan 283 270 268
350 340 333 335 334 325 360 288 300 298 281 314 325 330 335 334 325 317 309 300 306 308 nan 297 302 nan nan 287 280 nan nan nan nan nan nan nan nan nan nan nan nan nan nan
341 341 337 336 331 325 328 318 317 307 313 310 305 305 306 315 318 314 306 302 303 nan nan 297 nan nan 283 nan nan nan 305 295 nan nan nan nan nan nan nan nan nan nan nan
337 331 323 316 303 307 310 314 302 315 307 304 302 299 302 303 313 314 309 304 297 302 297 284 nan 287 nan nan nan nan nan nan nan nan nan nan nan nan nan nan nan nan nan
324 318 307 306 295 302 308 313 314 309 312 306 305 301 304 309 311 316 310 306 301 nan 297 290 nan nan nan nan nan 277 nan nan nan nan nan nan nan nan nan nan nan nan nan